Regional Weather Roundup
Issued by NWS

Home | Current Version | Previous Version | Graphics & Text | Print | Product List | Glossary On
Versions: 1 2 3 4 5 6 7 8 9 10 11 12 13 14 15 16 17 18 19 20 21 22 23 24 25 26 27 28 29 30 31 32 33 34 35 36 37 38 39 40 41 42 43 44 45 46 47 48 49 50
000
ASUS43 KFSD 271510
RWRSD

WEATHER ROUNDUP FOR SOUTH DAKOTA
NATIONAL WEATHER SERVICE SIOUX FALLS SD
1000 AM CDT TUE SEP 27 2016

NOTE: "FAIR" INDICATES FEW OR NO CLOUDS BELOW 12,000 FEET WITH NO
SIGNIFICANT WEATHER AND/OR OBSTRUCTIONS TO VISIBILITY.


SDZ001>005-009-010-012>017-271600-
NORTHWEST AND NORTH CENTRAL SOUTH DAKOTA

CITY           SKY/WX    TMP DP  RH WIND       PRES   REMARKS
BUFFALO          N/A     58  48  69 W3        29.98S
MOBRIDGE       SUNNY     55  43  63 NW5       30.00S
$$

SDZ012>016-024>037-041>051-057-063-072>074-271600-
SOUTHWEST AND SOUTH CENTRAL SOUTH DAKOTA

CITY           SKY/WX    TMP DP  RH WIND       PRES   REMARKS
RAPID CTY ARPT SUNNY     63  46  54 CALM      30.08S
PIERRE         SUNNY     54  42  64 W7        30.02S
CUSTER         SUNNY     64  39  39 W5        30.19S
ELLSWORTH AFB  SUNNY     62  47  57 W2        30.07R
PHILIP         SUNNY     57  43  59 W9        30.05F
PINE RIDGE     SUNNY     56  43  61 W3        30.12R
WINNER         FAIR      61  45  55 SW5       30.06S
$$

SDZ004>011-016>023-039-040-271600-
NORTHEAST SOUTH DAKOTA

CITY           SKY/WX    TMP DP  RH WIND       PRES   REMARKS
ABERDEEN       SUNNY     59  39  47 NW6       29.99S
WATERTOWN      SUNNY     55  40  56 NW10      29.96F
BROOKINGS      SUNNY     54  42  64 W5        29.97F
SISSETON         N/A     57  37  47 N13       29.93F
$$

SDZ017-020-022-023-036>040-048>070-271600-
SOUTHEAST SOUTH DAKOTA

CITY           SKY/WX    TMP DP  RH WIND       PRES   REMARKS
SIOUX FALLS    SUNNY     60  41  49 NW10      29.99F
HURON          SUNNY     58  41  53 MISG      30.00F
CHAMBERLAIN    SUNNY     56  44  63 W7        30.04F
MITCHELL       SUNNY     59  42  53 NW7       30.02F
YANKTON        SUNNY     61  43  51 W9        30.02S
$$

ABBREVIATIONS USED IN REMARKS
   TC - TEMPERATURE IN CELSIUS
  WCI - WIND CHILL INDEX
   HX - HEAT INDEX
  VSB - VISIBILITY





USA.gov is the U.S. government's official web portal to all federal, state and local government web resources and services.